Weather in Mamontovo

Russia / Khanty-Mansi Autonomous Okrug — Yugra     60°45′37″N   72°44′58″E
temp.,
°C
wind,
m/s
gust,
m/s
humid.,
%
clouds,
%
prec.,
mm/h
press.,
hPa
HPBL,
m
12 april, mon
mon1223:00+6sw51594100 2.6 1023562
02:00+6wsw51397100 0.4 1022622
05:00+4wnw41098100 0.5 1024668
08:00+3w41095100 0.0 1024504
11:00+5w59796 0.0 1025742
14:00+7w510580 0.0 10251360
17:00+6wnw610677 0.0 10271179
20:00+3wnw512745 0.0 1028699
13 april, tue
tue1323:00+1w413825 0.0 1030602
02:00+1w513845 0.0 1030557
05:000w4128919 0.0 1031494
08:00+2w5118081 0.0 1031659
11:00+5w6126090 0.0 10301179
14:00+7w61360100 0.0 10291627
17:00+5w61075100 0.0 10291087
20:00+5w41174100 0.0 1028816
14 april, wed
wed1423:00+5wsw41280100 0.0 1026503
02:00+5wsw51477100 0.1 1022535
05:00+4wsw51376100 0.1 1020547
08:00+3wnw51196100 1.1 1020861
11:00+4wnw4990100 1.5 1022574
14:00+6nw3684100 0.0 1023673
17:00+5wnw2588100 0.1 1024204
20:00+4w2292100 0.0 102443
15 april, thu
thu1523:00+4ssw2495100 0.0 1022108
02:00+5ssw41196100 0.0 1020312
05:00+6sw51493100 0.2 1017416
08:00+9wsw5148199 0.0 1015542
11:00+14wsw71460100 0.0 1013985
14:00+17wsw7144945 0.0 10101523
17:00+16w815465 0.0 10091999
20:00+13w6135461 0.0 1009747
16 april, fri
fri1623:00+3n5884100 0.4 1012561
02:00+2nnw3885100 0.9 1013785
05:00−2n5861100 1.1 1016637
08:00−3nne6854100 0.0 1018843
11:00−3n6843100 0.0 10201130
14:00−3n6833100 0.0 10221356
17:00−4nne7832100 0.0 10231445
20:00−6nne683591 0.0 10251195